FW9022 Weather Reports


Display with metric or nautical units.
time (UTC)temp
F
wind
direction
speed
MPH
gust
MPH
rain 1hr
in
rain 24hr
in
rain mn
in
humidity
%
barometer
mb
20260905224841 81 252 0.0 0.0 0.00 0.00 0.00 76 1014.1
20260905223831 82 252 0.0 0.0 0.00 0.00 0.00 75 1014.1
20260905222822 82 252 0.0 4.0 0.00 0.00 0.00 74 1014.2
20260905221832 83 157 0.0 1.0 0.00 0.00 0.00 73 1014.2
20260905220838 83 157 0.0 1.0 0.00 0.00 0.00 72 1014.3
20260905215833 82 157 0.0 2.0 0.00 0.00 0.00 73 1014.3
20260905214825 83 217 2.0 3.0 0.00 0.00 0.00 72 1014.3
20260905213820 84 254 0.0 3.0 0.00 0.00 0.00 70 1014.8
20260905212831 84 286 0.0 4.0 0.00 0.00 0.00 71 1014.9
20260905211825 83 168 0.0 2.0 0.00 0.00 0.00 71 1014.9
20260905210906 83 165 0.0 0.0 0.00 0.00 0.00 72 1015.0
20260905205828 82 165 0.0 1.0 0.00 0.00 0.00 75 1015.1
20260905204822 81 215 0.0 3.0 0.00 0.00 0.00 76 1015.1
20260905203835 81 211 0.0 2.0 0.00 0.00 0.00 77 1015.1
20260905202849 80 228 0.0 0.0 0.00 0.00 0.00 79 1015.4
20260905201846 80 228 3.0 5.0 0.00 0.00 0.00 79 1015.4
20260905200848 80 144 0.0 4.0 0.00 0.00 0.00 82 1015.6
20260905195827 78 257 0.0 0.0 0.00 0.00 0.00 83 1016.2
20260905194819 77 257 0.0 2.0 0.00 0.00 0.00 84 1016.2
20260905193837 77 227 0.0 1.0 0.00 0.00 0.00 86 1016.4
20260905192830 77 228 0.0 1.0 0.00 0.00 0.00 86 1016.5
20260905191845 77 228 0.0 0.0 0.00 0.00 0.00 86 1016.5
20260905190847 76 228 0.0 3.0 0.00 0.00 0.00 85 1016.4
20260905185832 76 230 0.0 4.0 0.00 0.00 0.00 86 1016.9
20260905184825 76 256 2.0 4.0 0.00 0.00 0.00 85 1016.9
20260905183839 77 240 0.0 1.0 0.00 0.00 0.00 81 1016.9
20260905182835 77 240 0.0 2.0 0.00 0.00 0.00 75 1016.9
20260905181829 76 244 1.0 3.0 0.00 0.00 0.00 77 1016.9
20260905180913 75 227 1.0 3.0 0.00 0.00 0.00 81 1018.1
20260905175831 75 45 0.0 5.0 0.00 0.00 0.00 79 1016.7
20260905174829 77 101 0.0 4.0 0.00 0.00 0.00 78 1016.7
20260905173823 77 222 1.0 2.0 0.00 0.00 0.00 77 1016.9
20260905172837 78 5 0.0 1.0 0.00 0.00 0.00 79 1017.1
20260905171851 80 270 2.0 6.0 0.00 0.00 0.00 76 1017.1
20260905170838 83 252 1.0 3.0 0.00 0.00 0.00 73 1016.7
20260905165819 85 313 0.0 1.0 0.00 0.00 0.00 72 1017.1
20260905164832 86 313 0.0 3.0 0.00 0.00 0.00 69 1017.1
20260905163831 87 9 1.0 5.0 0.00 0.00 0.00 65 1017.0
20260905162826 87 27 2.0 5.0 0.00 0.00 0.00 65 1017.3
20260905161820 87 5 2.0 5.0 0.00 0.00 0.00 67 1017.3
20260905160844 87 29 2.0 5.0 0.00 0.00 0.00 66 1017.4
20260905155826 87 360 2.0 6.0 0.00 0.00 0.00 67 1017.5
20260905154819 87 5 3.0 5.0 0.00 0.00 0.00 66 1017.5
20260905153833 88 78 2.0 3.0 0.00 0.00 0.00 69 1017.3
20260905152830 88 25 2.0 4.0 0.00 0.00 0.00 66 1017.1
20260905151824 87 147 1.0 2.0 0.00 0.00 0.00 67 1017.1
20260905150849 87 147 0.0 2.0 0.00 0.00 0.00 70 1017.0
20260905145829 86 146 0.0 0.0 0.00 0.00 0.00 73 1017.2
20260905144827 85 147 0.0 0.0 0.00 0.00 0.00 75 1017.2
20260905143841 85 146 0.0 2.0 0.00 0.00 0.00 75 1017.3
20260905142834 84 146 0.0 2.0 0.00 0.00 0.00 76 1017.5
20260905141849 83 146 0.0 2.0 0.00 0.00 0.00 79 1017.5
20260905140836 83 146 1.0 2.0 0.00 0.00 0.00 77 1017.7
20260905135835 81 147 2.0 3.0 0.00 0.00 0.00 78 1016.8
20260905134829 80 168 0.0 2.0 0.00 0.00 0.00 81 1016.8
20260905133839 79 200 0.0 1.0 0.00 0.00 0.00 84 1017.3
20260905132831 78 200 0.0 1.0 0.00 0.00 0.00 86 1017.4
20260905131824 77 200 0.0 1.0 0.00 0.00 0.00 88 1017.4
20260905130909 75 200 0.0 0.0 0.00 0.00 0.00 92 1017.5
20260905125830 73 200 0.0 1.0 0.00 0.00 0.00 96 1017.9
20260905124838 70 200 0.0 0.0 0.00 0.00 0.00 98 1017.9
20260905123830 70 200 0.0 0.0 0.00 0.00 0.00 98 1018.0
20260905122824 69 200 0.0 0.0 0.00 0.00 0.00 98 1018.0
20260905121823 68 200 0.0 0.0 0.00 0.00 0.00 98 1018.0
20260905120848 68 200 0.0 0.0 0.00 0.00 0.00 98 1017.7
20260905115827 67 200 0.0 0.0 0.00 0.00 0.00 98 1017.6
20260905114858 67 200 0.0 0.0 0.00 0.00 0.00 98 1017.6
20260905113836 67 200 0.0 0.0 0.00 0.00 0.00 98 1017.5
20260905112830 67 200 0.0 0.0 0.00 0.00 0.00 98 1017.3
20260905111825 67 200 0.0 0.0 0.00 0.00 0.00 98 1017.3
20260905110854 67 200 0.0 1.0 0.00 0.00 0.00 98 1016.5
20260905105833 67 200 0.0 1.0 0.00 0.00 0.00 97 1016.5
20260905104827 67 200 0.0 0.0 0.00 0.00 0.00 98 1016.5
20260905103821 67 200 0.0 0.0 0.00 0.00 0.00 98 1016.4
20260905102819 67 200 0.0 0.0 0.00 0.00 0.00 98 1016.1
20260905101834 67 200 0.0 0.0 0.00 0.00 0.00 97 1016.1
20260905100859 67 200 0.0 0.0 0.00 0.00 0.00 97 1015.8
20260905095857 68 200 0.0 0.0 0.00 0.00 0.00 97 1015.9
20260905094834 68 200 0.0 0.0 0.00 0.00 0.00 98 1015.9
20260905093829 68 200 0.0 0.0 0.00 0.00 0.00 97 1015.8
20260905092823 68 200 0.0 0.0 0.00 0.00 0.00 97 1016.0
20260905091857 68 200 0.0 0.0 0.00 0.00 0.00 97 1016.0
20260905090844 68 200 0.0 0.0 0.00 0.00 0.00 97 1016.2
20260905085824 68 200 0.0 0.0 0.00 0.00 0.00 97 1017.0
20260905084858 69 200 0.0 0.0 0.00 0.00 0.00 97 1017.0
20260905083831 69 200 0.0 0.0 0.00 0.00 0.00 97 1017.1
20260905082850 69 200 0.0 0.0 0.00 0.00 0.00 97 1017.1
20260905081822 69 200 0.0 0.0 0.00 0.00 0.00 97 1017.1
20260905080846 69 200 0.0 0.0 0.00 0.00 0.00 97 1017.2
20260905075830 69 200 0.0 0.0 0.00 0.00 0.00 97 1017.3
20260905074823 69 200 0.0 0.0 0.00 0.00 0.00 97 1017.3
20260905073838 69 200 0.0 0.0 0.00 0.00 0.00 97 1017.4
20260905072830 69 200 0.0 0.0 0.00 0.00 0.00 97 1017.5
20260905071828 69 200 0.0 0.0 0.00 0.00 0.00 97 1017.5
20260905070851 69 200 0.0 0.0 0.00 0.00 0.00 96 1017.3
20260905065830 70 200 0.0 0.0 0.00 0.00 0.00 97 1017.4
20260905064823 70 200 0.0 0.0 0.00 0.00 0.00 97 1017.4
20260905063821 70 200 0.0 0.0 0.00 0.00 0.00 97 1017.4
20260905062834 70 200 0.0 0.0 0.00 0.00 0.00 96 1017.6
20260905061827 70 200 0.0 0.0 0.00 0.00 0.00 96 1017.6
20260905060835 70 200 0.0 0.0 0.00 0.00 0.00 96 1018.0
20260905055856 70 200 0.0 0.0 0.00 0.00 0.00 96 1018.0
20260905054829 70 200 0.0 0.0 0.00 0.00 0.00 96 1018.0
20260905053822 71 200 0.0 0.0 0.00 0.00 0.00 96 1017.9
20260905052819 71 200 0.0 0.0 0.00 0.00 0.00 96 1018.0
20260905051833 71 200 0.0 0.0 0.00 0.00 0.00 96 1018.0
20260905050838 71 200 0.0 0.0 0.00 0.00 0.00 96 1018.0
20260905045818 71 200 0.0 0.0 0.00 0.00 0.00 96 1018.0
20260905044817 71 200 0.0 0.0 0.00 0.00 0.00 96 1018.0
20260905043831 71 200 0.0 0.0 0.00 0.00 0.00 95 1017.8
20260905042825 72 200 0.0 0.0 0.00 0.00 0.00 95 1017.6
20260905041822 72 200 0.0 0.0 0.00 0.00 0.00 95 1017.6
20260905040847 72 200 0.0 0.0 0.00 0.00 0.00 95 1017.6
20260905035827 72 200 0.0 0.0 0.00 0.00 0.00 95 1017.7
20260905034819 73 200 0.0 1.0 0.00 0.00 0.00 95 1017.7
20260905033817 73 200 0.0 0.0 0.00 0.00 0.00 95 1017.9
20260905032831 73 200 0.0 0.0 0.00 0.00 0.00 94 1017.6
20260905031823 73 200 0.0 0.0 0.00 0.00 0.00 94 1017.6
20260905030847 74 200 0.0 0.0 0.00 0.00 0.00 94 1018.0
20260905025831 74 200 0.0 1.0 0.00 0.00 0.00 93 1018.0
20260905024845 74 200 0.0 0.0 0.00 0.00 0.00 93 1018.0
20260905023818 74 200 0.0 1.0 0.00 0.00 0.00 93 1018.3
20260905022817 74 200 0.0 0.0 0.00 0.00 0.00 93 1018.1
20260905021831 75 200 0.0 0.0 0.00 0.00 0.00 92 1018.1
20260905020837 75 200 0.0 0.0 0.00 0.00 0.00 92 1018.6
20260905015856 76 200 0.0 0.0 0.00 0.00 0.00 91 1018.7
20260905014834 76 200 0.0 1.0 0.00 0.00 0.00 91 1018.7
20260905013828 76 200 0.0 0.0 0.00 0.00 0.00 91 1018.7
20260905012823 76 200 0.0 0.0 0.00 0.00 0.00 90 1018.6
20260905011817 77 200 0.0 0.0 0.00 0.00 0.00 89 1018.6
20260905010846 77 200 0.0 1.0 0.00 0.00 0.00 89 1018.2
20260905005825 78 200 0.0 1.0 0.00 0.00 0.00 88 1018.0
20260905004820 79 200 0.0 0.0 0.00 0.00 0.00 87 1018.0
20260905003854 79 200 0.0 0.0 0.00 0.00 0.00 85 1017.6
20260905002832 80 200 0.0 0.0 0.00 0.00 0.00 84 1017.6
20260905001847 81 200 0.0 0.0 0.00 0.00 0.00 82 1017.6
20260905000910 81 200 0.0 0.0 0.00 0.00 0.00 81 1017.8
20260904235829 82 200 0.0 0.0 0.00 0.00 0.00 78 1017.6
20260904234827 83 200 0.0 0.0 0.00 0.00 0.00 79 1017.6
20260904233821 85 200 0.0 0.0 0.00 0.00 0.00 77 1017.2
20260904232835 86 200 0.0 2.0 0.00 0.00 0.00 74 1016.9
20260904231853 86 200 0.0 4.0 0.00 0.00 0.00 70 1016.9
20260904230856 87 132 2.0 7.0 0.00 0.00 0.00 70 1016.9
20260904225835 87 140 0.0 5.0 0.00 0.00 0.00 70 1016.7